Powrót do katalogu

RESURS O1-N4

AktywnyNaukaSSO
NORAD 25394·PAYLOAD·🇷🇺 Russia

Wystrzelony Jul 10, 1998 z Baikonur Cosmodrome

Loading…

Następne Przeloty (najbliższe 24 godziny)

TLE

ŚwieżeSource: Space-Track

Epoka: Sep 14, 2026, 09:06 UTC

1 25394U 98043A   26257.37959622  .00000082  00000-0  54680-4 0  9999
2 25394  98.9546 232.7076 0000760 185.5300 174.5870 14.25146758465031

Śledź RESURS O1-N4 w czasie rzeczywistym z AllMySat

Download on the App Store